Location: Unspecified
(39.0057°N, 0.0000°E)
Time: 19:10:47
(UTC+00:00)

PDD Test Mass - Visible Passes

Search period start: 04 April 2026 00:00
Search period end: 14 April 2026 00:00
Orbit: 567 x 640 km, 89.8° (Epoch: 28 March)

Date Brightness Start Highest point End Pass type
(mag) Time Alt. Az. Time Alt. Az. Time Alt. Az.
4 Apr ? 03:34:37 10° ESE 03:36:37 13° ENE 03:38:36 10° NE visible
4 Apr ? 05:08:31 10° SSW 05:12:50 51° W 05:17:06 10° NNW visible
5 Apr ? 03:45:42 10° ESE 03:48:50 19° ENE 03:51:57 10° NNE visible
6 Apr ? 03:57:19 10° SE 04:01:06 29° E 04:04:51 10° NNE visible
7 Apr ? 04:09:14 10° SSE 04:13:24 44° E 04:17:31 10° NNE visible
8 Apr ? 04:21:23 10° SSE 04:25:44 69° E 04:30:01 10° N visible
9 Apr ? 04:33:43 10° S 04:38:05 76° W 04:42:24 10° N visible
10 Apr ? 03:12:12 10° ESE 03:14:14 13° ENE 03:16:16 10° NE visible
10 Apr ? 04:46:15 10° SSW 04:50:29 48° W 04:54:39 10° NNW visible
11 Apr ? 03:23:18 10° SE 03:26:26 20° ENE 03:29:32 10° NNE visible
11 Apr ? 04:59:02 10° SSW 05:02:54 31° W 05:06:43 10° NNW visible
12 Apr ? 03:34:55 10° SE 03:38:41 29° E 03:42:23 10° NNE visible
13 Apr ? 03:46:49 10° SSE 03:50:56 45° E 03:55:01 10° N visible
